Time,TemperatureF,DewpointF,PressureIn,WindDirection,WindDirectionDegrees,WindSpeedMPH,WindSpeedGustMPH,Humidity,HourlyPrecipIn,Conditions,Clouds,dailyrainin,SoftwareType,DateUTC
2013-07-09 00:02:00,55.5,53.8,29.89,WSW,238,0.0,7.0,94,0.00,,---,0.00,VWS V13.00,2013-07-09 06:02:00,
2013-07-09 00:07:00,55.3,53.6,29.89,WSW,238,0.0,7.0,94,0.00,,---,0.00,VWS V13.00,2013-07-09 06:07:00,
2013-07-09 00:12:00,55.3,53.6,29.89,WSW,249,0.0,9.0,94,0.00,,---,0.00,VWS V13.00,2013-07-09 06:12:00,
2013-07-09 00:17:00,55.3,53.6,29.89,SW,219,5.0,9.0,94,0.00,,---,0.00,VWS V13.00,2013-07-09 06:17:00,
2013-07-09 00:22:00,55.1,53.1,29.90,SSW,209,0.0,11.0,93,0.00,,---,0.00,VWS V13.00,2013-07-09 06:22:00,
2013-07-09 00:27:00,55.0,53.0,29.90,WSW,257,6.0,11.0,93,0.00,,---,0.00,VWS V13.00,2013-07-09 06:27:00,
2013-07-09 00:32:00,54.8,52.8,29.90,South,187,5.0,11.0,93,0.00,,---,0.00,VWS V13.00,2013-07-09 06:32:00,
2013-07-09 00:37:00,54.7,53.0,29.90,West,273,11.0,11.0,94,0.00,,---,0.00,VWS V13.00,2013-07-09 06:37:00,
2013-07-09 00:42:00,54.6,52.6,29.90,SW,223,1.0,12.0,93,0.00,,---,0.00,VWS V13.00,2013-07-09 06:42:00,
2013-07-09 00:47:00,54.5,52.8,29.90,SSW,212,1.0,12.0,94,0.00,,---,0.00,VWS V13.00,2013-07-09 06:47:00,
2013-07-09 00:52:00,54.2,52.2,29.89,West,274,5.0,12.0,93,0.00,,---,0.00,VWS V13.00,2013-07-09 06:52:00,
2013-07-09 00:57:00,54.0,52.0,29.89,West,273,0.0,12.0,93,0.00,,---,0.00,VWS V13.00,2013-07-09 06:57:00,
2013-07-09 01:02:00,53.9,51.9,29.89,West,273,0.0,12.0,93,0.00,,---,0.00,VWS V13.00,2013-07-09 07:02:00,
2013-07-09 01:07:00,53.8,51.8,29.90,West,273,0.0,12.0,93,0.00,,---,0.00,VWS V13.00,2013-07-09 07:07:00,
2013-07-09 01:12:00,53.7,51.7,29.90,West,273,0.0,0.0,93,0.00,,---,0.00,VWS V13.00,2013-07-09 07:12:00,
2013-07-09 01:17:00,53.3,51.3,29.90,West,273,3.0,6.0,93,0.00,,---,0.00,VWS V13.00,2013-07-09 07:17:00,
2013-07-09 01:22:00,53.0,51.0,29.92,West,273,3.0,6.0,93,0.00,,---,0.00,VWS V13.00,2013-07-09 07:22:00,
2013-07-09 01:27:00,52.7,50.5,29.92,West,274,5.0,6.0,92,0.00,,---,0.00,VWS V13.00,2013-07-09 07:27:00,
2013-07-09 01:32:00,52.5,50.5,29.92,WNW,292,7.0,7.0,93,0.00,,---,0.00,VWS V13.00,2013-07-09 07:32:00,
2013-07-09 01:37:00,52.5,50.8,29.92,WNW,296,5.0,7.0,94,0.00,,---,0.00,VWS V13.00,2013-07-09 07:37:00,
2013-07-09 01:42:00,52.6,50.9,29.92,WNW,298,7.0,9.0,94,0.00,,---,0.00,VWS V13.00,2013-07-09 07:42:00,
2013-07-09 01:47:00,52.5,50.8,29.92,WNW,299,1.0,9.0,94,0.00,,---,0.00,VWS V13.00,2013-07-09 07:47:00,
2013-07-09 01:53:00,52.5,51.1,29.95,WNW,294,5.0,9.0,95,0.00,,---,0.00,VWS V13.00,2013-07-09 07:53:00,
2013-07-09 01:58:00,52.4,51.0,29.95,WNW,294,0.0,9.0,95,0.00,,---,0.00,VWS V13.00,2013-07-09 07:58:00,
2013-07-09 02:03:00,52.4,51.0,29.95,WNW,293,0.0,9.0,95,0.00,,---,0.00,VWS V13.00,2013-07-09 08:03:00,
2013-07-09 02:08:00,52.3,50.9,29.95,WNW,292,0.0,9.0,95,0.00,,---,0.00,VWS V13.00,2013-07-09 08:08:00,
2013-07-09 02:13:00,52.3,50.9,29.95,WNW,292,0.0,0.0,95,0.00,,---,0.00,VWS V13.00,2013-07-09 08:13:00,
2013-07-09 02:18:00,52.3,50.9,29.95,WNW,293,0.0,0.0,95,0.00,,---,0.00,VWS V13.00,2013-07-09 08:18:00,
2013-07-09 02:23:00,52.4,51.0,29.95,WNW,288,0.0,4.0,95,0.00,,---,0.00,VWS V13.00,2013-07-09 08:23:00,
2013-07-09 02:28:00,52.4,51.0,29.95,WNW,289,0.0,4.0,95,0.00,,---,0.00,VWS V13.00,2013-07-09 08:28:00,
2013-07-09 02:33:00,52.4,51.0,29.95,WNW,288,0.0,4.0,95,0.00,,---,0.00,VWS V13.00,2013-07-09 08:33:00,
2013-07-09 02:37:00,52.4,51.0,29.95,WNW,286,0.0,4.0,95,0.00,,---,0.00,VWS V13.00,2013-07-09 08:37:00,
2013-07-09 02:42:00,52.5,51.1,29.95,SW,233,3.0,7.0,95,0.00,,---,0.00,VWS V13.00,2013-07-09 08:42:00,
2013-07-09 02:47:00,52.6,51.2,29.95,SW,227,0.0,7.0,95,0.00,,---,0.00,VWS V13.00,2013-07-09 08:47:00,
2013-07-09 02:52:00,52.6,51.2,29.98,SW,223,4.0,7.0,95,0.00,,---,0.00,VWS V13.00,2013-07-09 08:52:00,
2013-07-09 02:58:00,52.6,51.2,29.98,SW,223,4.0,7.0,95,0.00,,---,0.00,VWS V13.00,2013-07-09 08:58:00,
2013-07-09 03:03:00,52.7,51.3,29.98,SW,223,1.0,7.0,95,0.00,,---,0.00,VWS V13.00,2013-07-09 09:03:00,
2013-07-09 03:08:00,52.7,51.3,29.99,SW,225,0.0,7.0,95,0.00,,---,0.00,VWS V13.00,2013-07-09 09:08:00,
2013-07-09 03:13:00,52.6,51.2,29.99,SW,225,0.0,6.0,95,0.00,,---,0.00,VWS V13.00,2013-07-09 09:13:00,
2013-07-09 03:17:00,52.5,51.1,29.99,SW,225,0.0,6.0,95,0.00,,---,0.00,VWS V13.00,2013-07-09 09:17:00,
2013-07-09 03:22:00,52.5,51.1,29.99,SW,225,0.0,6.0,95,0.00,,---,0.00,VWS V13.00,2013-07-09 09:22:00,
2013-07-09 03:27:00,52.5,51.1,29.99,SW,225,0.0,6.0,95,0.00,,---,0.00,VWS V13.00,2013-07-09 09:27:00,
2013-07-09 03:32:00,52.4,51.0,29.99,SW,225,0.0,6.0,95,0.00,,---,0.00,VWS V13.00,2013-07-09 09:32:00,
2013-07-09 03:37:00,52.3,50.9,30.00,SW,225,0.0,6.0,95,0.00,,---,0.00,VWS V13.00,2013-07-09 09:37:00,
2013-07-09 03:42:00,52.2,50.8,30.00,SW,225,0.0,0.0,95,0.00,,---,0.00,VWS V13.00,2013-07-09 09:42:00,
2013-07-09 03:47:00,52.1,50.7,30.00,SW,225,0.0,0.0,95,0.00,,---,0.00,VWS V13.00,2013-07-09 09:47:00,
2013-07-09 03:52:00,52.0,50.6,30.00,SW,225,0.0,0.0,95,0.00,,---,0.00,VWS V13.00,2013-07-09 09:52:00,
2013-07-09 03:57:00,51.9,50.5,30.00,SW,225,0.0,2.0,95,0.00,,---,0.00,VWS V13.00,2013-07-09 09:57:00,
2013-07-09 04:02:00,51.7,50.0,30.00,SW,225,0.0,2.0,94,0.00,,---,0.00,VWS V13.00,2013-07-09 10:02:00,
2013-07-09 04:07:00,51.5,49.8,30.00,SW,225,1.0,2.0,94,0.00,,---,0.00,VWS V13.00,2013-07-09 10:07:00,
2013-07-09 04:12:00,51.4,49.5,30.00,SW,226,1.0,7.0,93,0.00,,---,0.00,VWS V13.00,2013-07-09 10:12:00,
2013-07-09 04:17:00,51.3,49.1,30.00,SW,229,5.0,9.0,92,0.00,,---,0.00,VWS V13.00,2013-07-09 10:17:00,
2013-07-09 04:22:00,51.2,49.0,30.00,SW,230,5.0,9.0,92,0.00,,---,0.00,VWS V13.00,2013-07-09 10:22:00,
2013-07-09 04:27:00,51.0,48.8,30.00,SW,233,0.0,9.0,92,0.00,,---,0.00,VWS V13.00,2013-07-09 10:27:00,
2013-07-09 04:32:00,50.8,48.3,30.00,SW,234,0.0,9.0,91,0.00,,---,0.00,VWS V13.00,2013-07-09 10:32:00,
2013-07-09 04:37:00,50.6,48.1,30.00,SW,234,5.0,9.0,91,0.00,,---,0.00,VWS V13.00,2013-07-09 10:37:00,
2013-07-09 04:42:00,50.4,47.9,30.00,SW,236,9.0,9.0,91,0.00,,---,0.00,VWS V13.00,2013-07-09 10:42:00,
2013-07-09 04:47:00,50.4,48.2,30.00,SW,236,5.0,9.0,92,0.00,,---,0.00,VWS V13.00,2013-07-09 10:47:00,
2013-07-09 04:52:00,50.4,48.2,29.99,WSW,237,4.0,9.0,92,0.00,,---,0.00,VWS V13.00,2013-07-09 10:52:00,
2013-07-09 04:57:00,50.3,48.1,29.99,WSW,237,0.0,9.0,92,0.00,,---,0.00,VWS V13.00,2013-07-09 10:57:00,
2013-07-09 05:02:00,50.3,48.1,29.99,WSW,237,0.0,9.0,92,0.00,,---,0.00,VWS V13.00,2013-07-09 11:02:00,
2013-07-09 05:07:00,50.3,48.1,29.99,SW,236,0.0,9.0,92,0.00,,---,0.00,VWS V13.00,2013-07-09 11:07:00,
2013-07-09 05:12:00,50.3,48.1,29.99,SW,236,0.0,5.0,92,0.00,,---,0.00,VWS V13.00,2013-07-09 11:12:00,
2013-07-09 05:17:00,50.3,48.1,29.99,SW,233,3.0,6.0,92,0.00,,---,0.00,VWS V13.00,2013-07-09 11:17:00,
2013-07-09 05:22:00,50.4,48.2,30.00,SW,232,0.0,6.0,92,0.00,,---,0.00,VWS V13.00,2013-07-09 11:22:00,
2013-07-09 05:27:00,50.5,48.3,30.00,SW,222,1.0,6.0,92,0.00,,---,0.00,VWS V13.00,2013-07-09 11:27:00,
2013-07-09 05:32:00,50.5,48.0,30.00,SW,221,0.0,6.0,91,0.00,,---,0.00,VWS V13.00,2013-07-09 11:32:00,
2013-07-09 05:37:00,50.3,47.8,30.00,SW,221,0.0,6.0,91,0.00,,---,0.00,VWS V13.00,2013-07-09 11:37:00,
2013-07-09 05:42:00,49.9,47.4,30.00,SW,221,0.0,0.0,91,0.00,,---,0.00,VWS V13.00,2013-07-09 11:42:00,
2013-07-09 05:47:00,49.7,47.2,30.00,SW,221,0.0,0.0,91,0.00,,---,0.00,VWS V13.00,2013-07-09 11:47:00,
2013-07-09 05:52:00,49.6,47.1,30.00,SW,221,0.0,0.0,91,0.00,,---,0.00,VWS V13.00,2013-07-09 11:52:00,
2013-07-09 05:57:00,49.5,47.0,30.00,SW,221,0.0,0.0,91,0.00,,---,0.00,VWS V13.00,2013-07-09 11:57:00,
2013-07-09 06:02:00,49.5,47.0,30.00,SW,221,0.0,0.0,91,0.00,,---,0.00,VWS V13.00,2013-07-09 12:02:00,
2013-07-09 06:07:00,49.4,46.9,30.01,SW,221,0.0,0.0,91,0.00,,---,0.00,VWS V13.00,2013-07-09 12:07:00,
2013-07-09 06:12:00,49.5,47.3,30.01,SW,221,0.0,0.0,92,0.00,,---,0.00,VWS V13.00,2013-07-09 12:12:00,
2013-07-09 06:17:00,49.6,47.4,30.01,SW,221,0.0,0.0,92,0.00,,---,0.00,VWS V13.00,2013-07-09 12:17:00,
2013-07-09 06:22:00,49.6,47.4,30.01,SW,221,0.0,0.0,92,0.00,,---,0.00,VWS V13.00,2013-07-09 12:22:00,
2013-07-09 06:27:00,49.7,47.8,30.01,SW,221,0.0,0.0,93,0.00,,---,0.00,VWS V13.00,2013-07-09 12:27:00,
2013-07-09 06:32:00,49.9,48.0,30.01,SW,221,0.0,0.0,93,0.00,,---,0.00,VWS V13.00,2013-07-09 12:32:00,
2013-07-09 06:37:00,50.2,48.3,30.02,SW,221,0.0,0.0,93,0.00,,---,0.00,VWS V13.00,2013-07-09 12:37:00,
2013-07-09 06:42:00,50.5,48.6,30.02,SW,221,0.0,0.0,93,0.00,,---,0.00,VWS V13.00,2013-07-09 12:42:00,
2013-07-09 06:47:00,50.8,48.8,30.02,SW,221,0.0,0.0,93,0.00,,---,0.00,VWS V13.00,2013-07-09 12:47:00,
2013-07-09 06:52:00,51.3,49.1,30.02,SW,221,0.0,0.0,92,0.00,,---,0.00,VWS V13.00,2013-07-09 12:52:00,
2013-07-09 06:57:00,51.7,49.5,30.02,SW,222,0.0,0.0,92,0.00,,---,0.00,VWS V13.00,2013-07-09 12:57:00,
2013-07-09 07:02:00,52.0,49.5,30.02,SW,222,0.0,0.0,91,0.00,,---,0.00,VWS V13.00,2013-07-09 13:02:00,
2013-07-09 07:07:00,52.3,49.8,30.03,SW,222,0.0,0.0,91,0.00,,---,0.00,VWS V13.00,2013-07-09 13:07:00,
2013-07-09 07:12:00,52.6,50.0,30.03,SW,222,0.0,0.0,91,0.00,,---,0.00,VWS V13.00,2013-07-09 13:12:00,
2013-07-09 07:17:00,52.9,50.3,30.03,SW,222,0.0,0.0,91,0.00,,---,0.00,VWS V13.00,2013-07-09 13:17:00,
2013-07-09 07:22:00,53.2,50.7,30.02,SW,222,0.0,0.0,91,0.00,,---,0.00,VWS V13.00,2013-07-09 13:22:00,
2013-07-09 07:27:00,53.6,50.7,30.02,SW,222,0.0,0.0,90,0.00,,---,0.00,VWS V13.00,2013-07-09 13:27:00,
2013-07-09 07:32:00,53.9,51.0,30.02,SW,222,0.0,0.0,90,0.00,,---,0.00,VWS V13.00,2013-07-09 13:32:00,
2013-07-09 07:37:00,54.1,50.6,30.03,SW,221,0.0,0.0,88,0.00,,---,0.00,VWS V13.00,2013-07-09 13:37:00,
2013-07-09 07:42:00,54.5,51.0,30.03,SW,222,0.0,0.0,88,0.00,,---,0.00,VWS V13.00,2013-07-09 13:42:00,
2013-07-09 07:47:00,55.0,51.8,30.03,SW,222,0.0,0.0,89,0.00,,---,0.00,VWS V13.00,2013-07-09 13:47:00,
2013-07-09 07:52:00,55.4,51.9,30.03,SW,222,0.0,0.0,88,0.00,,---,0.00,VWS V13.00,2013-07-09 13:52:00,
2013-07-09 07:57:00,56.0,52.8,30.03,SW,222,0.0,0.0,89,0.00,,---,0.00,VWS V13.00,2013-07-09 13:57:00,
2013-07-09 08:02:00,56.5,52.7,30.03,SW,222,0.0,0.0,87,0.00,,---,0.00,VWS V13.00,2013-07-09 14:02:00,
2013-07-09 08:07:00,57.1,52.6,30.02,SW,222,0.0,0.0,85,0.00,,---,0.00,VWS V13.00,2013-07-09 14:07:00,
2013-07-09 08:12:00,57.6,52.2,30.02,SW,222,0.0,0.0,82,0.00,,---,0.00,VWS V13.00,2013-07-09 14:12:00,
2013-07-09 08:17:00,58.1,52.6,30.02,SW,222,0.0,0.0,82,0.00,,---,0.00,VWS V13.00,2013-07-09 14:17:00,
2013-07-09 08:22:00,58.5,51.7,30.02,SW,222,0.0,0.0,78,0.00,,---,0.00,VWS V13.00,2013-07-09 14:22:00,
2013-07-09 08:27:00,58.8,52.0,30.02,SW,222,0.0,0.0,78,0.00,,---,0.00,VWS V13.00,2013-07-09 14:27:00,
2013-07-09 08:32:00,58.7,51.5,30.02,SW,231,0.0,0.0,77,0.00,,---,0.00,VWS V13.00,2013-07-09 14:32:00,
2013-07-09 08:37:00,59.0,52.8,30.03,SW,230,0.0,0.0,80,0.00,,---,0.00,VWS V13.00,2013-07-09 14:37:00,
2013-07-09 08:42:00,59.0,51.8,30.03,West,260,0.0,0.0,77,0.00,,---,0.00,VWS V13.00,2013-07-09 14:42:00,
2013-07-09 08:47:00,59.0,51.8,30.03,West,260,0.0,0.0,77,0.00,,---,0.00,VWS V13.00,2013-07-09 14:47:00,
2013-07-09 08:52:00,59.1,51.5,30.05,West,260,0.0,0.0,76,0.00,,---,0.00,VWS V13.00,2013-07-09 14:52:00,
2013-07-09 08:57:00,59.4,52.2,30.05,West,261,0.0,0.0,77,0.00,,---,0.00,VWS V13.00,2013-07-09 14:57:00,
2013-07-09 09:02:00,59.6,52.0,30.05,West,260,0.0,0.0,76,0.00,,---,0.00,VWS V13.00,2013-07-09 15:02:00,
2013-07-09 09:07:00,59.7,51.4,30.05,West,261,0.0,0.0,74,0.00,,---,0.00,VWS V13.00,2013-07-09 15:07:00,
2013-07-09 09:12:00,59.9,52.0,30.05,West,260,0.0,0.0,75,0.00,,---,0.00,VWS V13.00,2013-07-09 15:12:00,
2013-07-09 09:17:00,60.3,51.6,30.05,West,263,0.0,0.0,73,0.00,,---,0.00,VWS V13.00,2013-07-09 15:17:00,
2013-07-09 09:22:00,60.5,51.4,30.05,West,263,0.0,0.0,72,0.00,,---,0.00,VWS V13.00,2013-07-09 15:22:00,
2013-07-09 09:27:00,60.6,51.9,30.05,West,264,0.0,2.0,73,0.00,,---,0.00,VWS V13.00,2013-07-09 15:27:00,
2013-07-09 09:32:00,60.9,52.6,30.05,West,265,0.0,2.0,74,0.00,,---,0.00,VWS V13.00,2013-07-09 15:32:00,
2013-07-09 09:37:00,61.3,52.6,30.05,West,264,0.0,2.0,73,0.00,,---,0.00,VWS V13.00,2013-07-09 15:37:00,
2013-07-09 09:42:00,61.7,51.8,30.05,West,265,0.0,2.0,70,0.00,,---,0.00,VWS V13.00,2013-07-09 15:42:00,
2013-07-09 09:47:00,62.1,52.2,30.05,West,265,0.0,3.0,70,0.00,,---,0.00,VWS V13.00,2013-07-09 15:47:00,
2013-07-09 09:52:00,62.3,50.8,30.06,West,265,0.0,3.0,66,0.00,,---,0.00,VWS V13.00,2013-07-09 15:52:00,
2013-07-09 09:57:00,62.6,51.5,30.06,West,265,1.0,3.0,67,0.00,,---,0.00,VWS V13.00,2013-07-09 15:57:00,
2013-07-09 10:02:00,62.9,51.0,30.06,West,264,0.0,3.0,65,0.00,,---,0.00,VWS V13.00,2013-07-09 16:02:00,
2013-07-09 10:07:00,63.0,51.5,30.05,West,264,0.0,3.0,66,0.00,,---,0.00,VWS V13.00,2013-07-09 16:07:00,
2013-07-09 10:12:00,63.1,50.7,30.05,West,264,0.0,0.0,64,0.00,,---,0.00,VWS V13.00,2013-07-09 16:12:00,
2013-07-09 10:17:00,63.4,53.1,30.05,West,264,0.0,0.0,69,0.00,,---,0.00,VWS V13.00,2013-07-09 16:17:00,
2013-07-09 10:22:00,63.7,51.3,30.05,West,265,0.0,0.0,64,0.00,,---,0.00,VWS V13.00,2013-07-09 16:22:00,
2013-07-09 10:27:00,63.8,50.5,30.05,West,264,0.0,1.0,62,0.00,,---,0.00,VWS V13.00,2013-07-09 16:27:00,
2013-07-09 10:32:00,64.0,51.2,30.05,West,275,0.0,4.0,63,0.00,,---,0.00,VWS V13.00,2013-07-09 16:32:00,
2013-07-09 10:37:00,64.3,50.6,30.05,WNW,286,0.0,6.0,61,0.00,,---,0.00,VWS V13.00,2013-07-09 16:37:00,
2013-07-09 10:42:00,64.6,51.7,30.05,WNW,286,0.0,2.0,63,0.00,,---,0.00,VWS V13.00,2013-07-09 16:42:00,
2013-07-09 10:47:00,64.6,50.0,30.05,WNW,293,1.0,6.0,59,0.00,,---,0.00,VWS V13.00,2013-07-09 16:47:00,
2013-07-09 10:52:00,64.7,50.1,30.05,WNW,294,0.0,6.0,59,0.00,,---,0.00,VWS V13.00,2013-07-09 16:52:00,
2013-07-09 10:57:00,64.8,51.0,30.05,WNW,293,0.0,6.0,61,0.00,,---,0.00,VWS V13.00,2013-07-09 16:57:00,
2013-07-09 11:02:00,65.2,49.1,30.05,NW,309,3.0,7.0,56,0.00,,---,0.00,VWS V13.00,2013-07-09 17:02:00,
2013-07-09 11:07:00,65.2,49.6,30.05,NW,308,0.0,7.0,57,0.00,,---,0.00,VWS V13.00,2013-07-09 17:07:00,
2013-07-09 11:12:00,65.2,50.5,30.05,NNW,345,4.0,9.0,59,0.00,,---,0.00,VWS V13.00,2013-07-09 17:12:00,
2013-07-09 11:17:00,65.3,49.2,30.05,NNW,344,3.0,11.0,56,0.00,,---,0.00,VWS V13.00,2013-07-09 17:17:00,
2013-07-09 11:22:00,65.4,49.8,30.04,NNW,340,4.0,11.0,57,0.00,,---,0.00,VWS V13.00,2013-07-09 17:22:00,
2013-07-09 11:27:00,65.6,49.5,30.04,NNW,341,1.0,11.0,56,0.00,,---,0.00,VWS V13.00,2013-07-09 17:27:00,
2013-07-09 11:32:00,65.7,51.0,30.04,NW,326,5.0,11.0,59,0.00,,---,0.00,VWS V13.00,2013-07-09 17:32:00,
2013-07-09 11:37:00,65.7,48.6,30.04,NW,325,2.0,11.0,54,0.00,,---,0.00,VWS V13.00,2013-07-09 17:37:00,
2013-07-09 11:42:00,65.9,50.7,30.04,NW,325,2.0,2.0,58,0.00,,---,0.00,VWS V13.00,2013-07-09 17:42:00,
2013-07-09 11:47:00,66.1,50.0,30.04,NW,325,2.0,3.0,56,0.00,,---,0.00,VWS V13.00,2013-07-09 17:47:00,
2013-07-09 11:52:00,66.4,50.7,30.05,NNW,338,4.0,5.0,57,0.00,,---,0.00,VWS V13.00,2013-07-09 17:52:00,
2013-07-09 11:57:00,66.7,50.0,30.05,NNW,337,3.0,7.0,55,0.00,,---,0.00,VWS V13.00,2013-07-09 17:57:00,
2013-07-09 12:02:00,67.0,49.8,30.05,NW,318,4.0,11.0,54,0.00,,---,0.00,VWS V13.00,2013-07-09 18:02:00,
2013-07-09 12:07:00,67.0,50.3,30.04,NW,315,0.0,11.0,55,0.00,,---,0.00,VWS V13.00,2013-07-09 18:07:00,
2013-07-09 12:12:00,67.4,48.7,30.04,NW,315,0.0,0.0,51,0.00,,---,0.00,VWS V13.00,2013-07-09 18:12:00,
2013-07-09 12:17:00,67.8,49.5,30.04,NW,315,0.0,2.0,52,0.00,,---,0.00,VWS V13.00,2013-07-09 18:17:00,
2013-07-09 12:22:00,68.0,49.2,30.03,NNW,344,8.0,11.0,51,0.00,,---,0.00,VWS V13.00,2013-07-09 18:22:00,
2013-07-09 12:27:00,68.0,48.7,30.03,NNW,333,3.0,12.0,50,0.00,,---,0.00,VWS V13.00,2013-07-09 18:27:00,
2013-07-09 12:32:00,67.9,50.2,30.03,North,360,5.0,12.0,53,0.00,,---,0.00,VWS V13.00,2013-07-09 18:32:00,
2013-07-09 12:37:00,68.0,49.2,30.03,North,9,0.0,12.0,51,0.00,,---,0.00,VWS V13.00,2013-07-09 18:37:00,
2013-07-09 12:42:00,68.1,49.8,30.03,NNW,342,4.0,6.0,52,0.00,,---,0.00,VWS V13.00,2013-07-09 18:42:00,
2013-07-09 12:47:00,68.1,49.8,30.03,NNW,327,2.0,6.0,52,0.00,,---,0.00,VWS V13.00,2013-07-09 18:47:00,
2013-07-09 12:52:00,68.4,50.6,30.04,NW,321,0.0,6.0,53,0.00,,---,0.00,VWS V13.00,2013-07-09 18:52:00,
2013-07-09 12:57:00,68.9,50.6,30.04,NW,321,2.0,6.0,52,0.00,,---,0.00,VWS V13.00,2013-07-09 18:57:00,
2013-07-09 13:02:00,69.2,48.7,30.04,NW,306,2.0,6.0,48,0.00,,---,0.00,VWS V13.00,2013-07-09 19:02:00,
2013-07-09 13:07:00,69.3,49.3,30.03,NNW,343,0.0,8.0,49,0.00,,---,0.00,VWS V13.00,2013-07-09 19:07:00,
2013-07-09 13:12:00,69.4,48.3,30.03,WNW,295,6.0,11.0,47,0.00,,---,0.00,VWS V13.00,2013-07-09 19:12:00,
2013-07-09 13:17:00,69.4,48.9,30.03,WNW,301,1.0,11.0,48,0.00,,---,0.00,VWS V13.00,2013-07-09 19:17:00,
2013-07-09 13:22:00,69.7,49.2,30.03,WSW,253,2.0,11.0,48,0.00,,---,0.00,VWS V13.00,2013-07-09 19:22:00,
2013-07-09 13:27:00,70.0,50.0,30.03,WSW,248,0.0,11.0,49,0.00,,---,0.00,VWS V13.00,2013-07-09 19:27:00,
2013-07-09 13:32:00,70.1,49.5,30.03,North,11,4.0,11.0,48,0.00,,---,0.00,VWS V13.00,2013-07-09 19:32:00,
2013-07-09 13:37:00,70.0,49.4,30.03,North,5,3.0,11.0,48,0.00,,---,0.00,VWS V13.00,2013-07-09 19:37:00,
2013-07-09 13:42:00,69.8,50.9,30.03,NNW,346,4.0,5.0,51,0.00,,---,0.00,VWS V13.00,2013-07-09 19:42:00,
2013-07-09 13:47:00,69.9,49.9,30.03,North,360,1.0,5.0,49,0.00,,---,0.00,VWS V13.00,2013-07-09 19:47:00,
2013-07-09 13:52:00,69.9,49.9,30.02,North,360,5.0,6.0,49,0.00,,---,0.00,VWS V13.00,2013-07-09 19:52:00,
2013-07-09 13:57:00,69.9,48.8,30.02,North,355,4.0,14.0,47,0.00,,---,0.00,VWS V13.00,2013-07-09 19:57:00,
2013-07-09 14:02:00,69.9,49.9,30.02,NNW,329,1.0,14.0,49,0.00,,---,0.00,VWS V13.00,2013-07-09 20:02:00,
2013-07-09 14:07:00,70.2,51.8,30.01,NW,314,2.0,14.0,52,0.00,,---,0.00,VWS V13.00,2013-07-09 20:07:00,
2013-07-09 14:12:00,70.6,50.0,30.01,North,360,2.0,17.0,48,0.00,,---,0.00,VWS V13.00,2013-07-09 20:12:00,
2013-07-09 14:17:00,70.8,50.7,30.01,NW,320,7.0,17.0,49,0.00,,---,0.00,VWS V13.00,2013-07-09 20:17:00,
2013-07-09 14:22:00,70.8,50.7,30.01,North,355,9.0,17.0,49,0.00,,---,0.00,VWS V13.00,2013-07-09 20:22:00,
2013-07-09 14:27:00,70.8,50.7,30.01,NW,320,2.0,17.0,49,0.00,,---,0.00,VWS V13.00,2013-07-09 20:27:00,
2013-07-09 14:32:00,71.0,53.0,30.01,NNW,348,4.0,17.0,53,0.00,,---,0.00,VWS V13.00,2013-07-09 20:32:00,
2013-07-09 14:37:00,71.5,51.9,30.00,WNW,298,6.0,17.0,50,0.00,,---,0.00,VWS V13.00,2013-07-09 20:37:00,
2013-07-09 14:42:00,71.7,51.0,30.00,North,351,3.0,12.0,48,0.00,,---,0.00,VWS V13.00,2013-07-09 20:42:00,
2013-07-09 14:47:00,71.7,51.5,30.00,WNW,295,4.0,12.0,49,0.00,,---,0.00,VWS V13.00,2013-07-09 20:47:00,
2013-07-09 14:52:00,71.6,50.3,30.00,NW,306,4.0,12.0,47,0.00,,---,0.00,VWS V13.00,2013-07-09 20:52:00,
2013-07-09 14:57:00,71.6,50.9,30.00,NW,311,10.0,14.0,48,0.00,,---,0.00,VWS V13.00,2013-07-09 20:57:00,
2013-07-09 15:02:00,71.6,52.5,30.00,NNW,348,2.0,14.0,51,0.00,,---,0.00,VWS V13.00,2013-07-09 21:02:00,
2013-07-09 15:07:00,71.7,50.4,30.00,NNW,340,2.0,14.0,47,0.00,,---,0.00,VWS V13.00,2013-07-09 21:07:00,
2013-07-09 15:12:00,71.9,50.0,30.00,NW,309,0.0,7.0,46,0.00,,---,0.00,VWS V13.00,2013-07-09 21:12:00,
2013-07-09 15:17:00,72.2,50.9,30.00,North,350,5.0,7.0,47,0.00,,---,0.00,VWS V13.00,2013-07-09 21:17:00,
2013-07-09 15:22:00,72.3,50.4,30.00,NW,317,4.0,10.0,46,0.00,,---,0.00,VWS V13.00,2013-07-09 21:22:00,
2013-07-09 15:27:00,72.4,52.2,30.00,NW,306,2.0,10.0,49,0.00,,---,0.00,VWS V13.00,2013-07-09 21:27:00,
2013-07-09 15:32:00,72.7,51.9,30.00,NW,309,4.0,10.0,48,0.00,,---,0.00,VWS V13.00,2013-07-09 21:32:00,
2013-07-09 15:37:00,72.9,53.2,30.00,WNW,303,5.0,10.0,50,0.00,,---,0.00,VWS V13.00,2013-07-09 21:37:00,
2013-07-09 15:42:00,72.9,51.5,30.00,NW,313,1.0,7.0,47,0.00,,---,0.00,VWS V13.00,2013-07-09 21:42:00,
2013-07-09 15:47:00,73.1,51.7,30.00,NW,313,1.0,7.0,47,0.00,,---,0.00,VWS V13.00,2013-07-09 21:47:00,
2013-07-09 15:52:00,73.4,52.0,29.99,NNW,327,1.0,7.0,47,0.00,,---,0.00,VWS V13.00,2013-07-09 21:52:00,
2013-07-09 15:57:00,73.3,51.9,29.99,NNW,347,0.0,8.0,47,0.00,,---,0.00,VWS V13.00,2013-07-09 21:57:00,
2013-07-09 16:02:00,73.5,51.5,29.99,North,351,7.0,8.0,46,0.00,,---,0.00,VWS V13.00,2013-07-09 22:02:00,
2013-07-09 16:07:00,73.4,53.1,29.98,NW,321,0.0,10.0,49,0.00,,---,0.00,VWS V13.00,2013-07-09 22:07:00,
2013-07-09 16:12:00,73.2,51.2,29.98,NW,311,1.0,9.0,46,0.00,,---,0.00,VWS V13.00,2013-07-09 22:12:00,
2013-07-09 16:17:00,73.3,53.6,29.98,NW,321,4.0,9.0,50,0.00,,---,0.00,VWS V13.00,2013-07-09 22:17:00,
2013-07-09 16:22:00,73.5,53.7,29.98,NW,314,2.0,9.0,50,0.00,,---,0.00,VWS V13.00,2013-07-09 22:22:00,
2013-07-09 16:27:00,73.7,52.8,29.98,West,277,4.0,9.0,48,0.00,,---,0.00,VWS V13.00,2013-07-09 22:27:00,
2013-07-09 16:32:00,73.7,52.2,29.98,NNW,334,0.0,9.0,47,0.00,,---,0.00,VWS V13.00,2013-07-09 22:32:00,
2013-07-09 16:37:00,73.9,53.6,29.98,North,355,2.0,9.0,49,0.00,,---,0.00,VWS V13.00,2013-07-09 22:37:00,
2013-07-09 16:42:00,74.0,53.1,29.98,NW,317,0.0,6.0,48,0.00,,---,0.00,VWS V13.00,2013-07-09 22:42:00,
2013-07-09 16:47:00,74.1,52.0,29.98,NNW,344,0.0,6.0,46,0.00,,---,0.00,VWS V13.00,2013-07-09 22:47:00,
2013-07-09 16:52:00,74.3,53.9,29.98,NW,313,4.0,6.0,49,0.00,,---,0.00,VWS V13.00,2013-07-09 22:52:00,
2013-07-09 16:57:00,74.6,54.2,29.98,NNW,327,4.0,6.0,49,0.00,,---,0.00,VWS V13.00,2013-07-09 22:57:00,
2013-07-09 17:02:00,74.7,53.2,29.98,NW,325,2.0,6.0,47,0.00,,---,0.00,VWS V13.00,2013-07-09 23:02:00,
2013-07-09 17:07:00,74.8,51.5,29.98,NNW,330,2.0,6.0,44,0.00,,---,0.00,VWS V13.00,2013-07-09 23:07:00,
2013-07-09 17:12:00,74.8,53.8,29.98,NNW,331,0.0,3.0,48,0.00,,---,0.00,VWS V13.00,2013-07-09 23:12:00,
2013-07-09 17:17:00,75.1,54.7,29.98,NNW,331,4.0,5.0,49,0.00,,---,0.00,VWS V13.00,2013-07-09 23:17:00,
2013-07-09 17:22:00,75.1,52.9,29.98,NNW,333,1.0,5.0,46,0.00,,---,0.00,VWS V13.00,2013-07-09 23:22:00,
2013-07-09 17:27:00,75.3,54.3,29.98,NW,309,4.0,5.0,48,0.00,,---,0.00,VWS V13.00,2013-07-09 23:27:00,
2013-07-09 17:32:00,75.3,53.1,29.98,NW,309,1.0,6.0,46,0.00,,---,0.00,VWS V13.00,2013-07-09 23:32:00,
2013-07-09 17:37:00,75.4,53.8,29.97,NNW,333,2.0,6.0,47,0.00,,---,0.00,VWS V13.00,2013-07-09 23:37:00,
2013-07-09 17:42:00,75.5,53.9,29.97,NW,306,4.0,5.0,47,0.00,,---,0.00,VWS V13.00,2013-07-09 23:42:00,
2013-07-09 17:47:00,75.3,52.5,29.97,NW,304,3.0,5.0,45,0.00,,---,0.00,VWS V13.00,2013-07-09 23:47:00,
2013-07-09 17:52:00,75.3,54.8,29.97,NNW,327,5.0,5.0,49,0.00,,---,0.00,VWS V13.00,2013-07-09 23:52:00,
2013-07-09 17:57:00,75.2,53.6,29.97,NNW,338,5.0,5.0,47,0.00,,---,0.00,VWS V13.00,2013-07-09 23:57:00,
2013-07-09 18:02:00,75.0,53.4,29.97,NNW,335,4.0,9.0,47,0.00,,---,0.00,VWS V13.00,2013-07-10 00:02:00,
2013-07-09 18:07:00,74.7,52.0,29.97,NW,320,0.0,9.0,45,0.00,,---,0.00,VWS V13.00,2013-07-10 00:07:00,
2013-07-09 18:12:00,74.7,53.7,29.97,NW,320,0.0,6.0,48,0.00,,---,0.00,VWS V13.00,2013-07-10 00:12:00,
2013-07-09 18:17:00,74.9,55.6,29.97,NW,318,3.0,6.0,51,0.00,,---,0.00,VWS V13.00,2013-07-10 00:17:00,
2013-07-09 18:22:00,75.1,53.5,29.96,NW,317,3.0,6.0,47,0.00,,---,0.00,VWS V13.00,2013-07-10 00:22:00,
2013-07-09 18:27:00,75.0,52.8,29.96,NW,315,3.0,6.0,46,0.00,,---,0.00,VWS V13.00,2013-07-10 00:27:00,
2013-07-09 18:32:00,75.0,54.0,29.96,NW,315,0.0,6.0,48,0.00,,---,0.00,VWS V13.00,2013-07-10 00:32:00,
2013-07-09 18:37:00,75.2,54.2,29.96,NW,315,0.0,6.0,48,0.00,,---,0.00,VWS V13.00,2013-07-10 00:37:00,
2013-07-09 18:42:00,75.3,53.7,29.96,NW,315,0.0,0.0,47,0.00,,---,0.00,VWS V13.00,2013-07-10 00:42:00,
2013-07-09 18:47:00,75.3,53.7,29.96,NW,315,2.0,4.0,47,0.00,,---,0.00,VWS V13.00,2013-07-10 00:47:00,
2013-07-09 18:52:00,75.1,53.5,29.94,NW,313,0.0,5.0,47,0.00,,---,0.00,VWS V13.00,2013-07-10 00:52:00,
2013-07-09 18:57:00,75.1,53.5,29.94,NW,313,0.0,5.0,47,0.00,,---,0.00,VWS V13.00,2013-07-10 00:57:00,
2013-07-09 19:02:00,75.0,54.6,29.94,NW,313,0.0,5.0,49,0.00,,---,0.00,VWS V13.00,2013-07-10 01:02:00,
2013-07-09 19:07:00,75.1,54.7,29.95,NW,313,0.0,5.0,49,0.00,,---,0.00,VWS V13.00,2013-07-10 01:07:00,
2013-07-09 19:12:00,74.8,54.4,29.95,NW,313,0.0,0.0,49,0.00,,---,0.00,VWS V13.00,2013-07-10 01:12:00,
2013-07-09 19:17:00,74.6,52.5,29.95,NW,322,0.0,0.0,46,0.00,,---,0.00,VWS V13.00,2013-07-10 01:17:00,
2013-07-09 19:22:00,74.6,52.5,29.94,NW,322,0.0,0.0,46,0.00,,---,0.00,VWS V13.00,2013-07-10 01:22:00,
2013-07-09 19:27:00,74.7,53.7,29.94,ENE,64,7.0,7.0,48,0.00,,---,0.00,VWS V13.00,2013-07-10 01:27:00,
2013-07-09 19:32:00,73.5,54.3,29.94,ESE,123,6.0,11.0,51,0.00,,---,0.00,VWS V13.00,2013-07-10 01:32:00,
2013-07-09 19:37:00,72.1,54.6,29.95,ESE,111,9.0,11.0,54,0.00,,---,0.00,VWS V13.00,2013-07-10 01:37:00,
2013-07-09 19:42:00,71.0,54.0,29.95,East,100,7.0,11.0,55,0.00,,---,0.00,VWS V13.00,2013-07-10 01:42:00,
2013-07-09 19:47:00,70.4,54.0,29.95,ESE,108,7.0,11.0,56,0.00,,---,0.00,VWS V13.00,2013-07-10 01:47:00,
2013-07-09 19:52:00,69.9,54.0,29.94,ESE,102,9.0,11.0,57,0.00,,---,0.00,VWS V13.00,2013-07-10 01:52:00,
2013-07-09 19:57:00,69.4,53.0,29.94,East,96,11.0,12.0,56,0.00,,---,0.00,VWS V13.00,2013-07-10 01:57:00,
2013-07-09 20:02:00,69.1,53.2,29.94,East,95,3.0,12.0,57,0.00,,---,0.00,VWS V13.00,2013-07-10 02:02:00,
2013-07-09 20:07:00,68.8,53.0,29.94,ESE,105,10.0,12.0,57,0.00,,---,0.00,VWS V13.00,2013-07-10 02:07:00,
2013-07-09 20:12:00,68.5,53.6,29.94,East,99,2.0,10.0,59,0.00,,---,0.00,VWS V13.00,2013-07-10 02:12:00,
2013-07-09 20:17:00,68.0,53.6,29.94,East,98,5.0,10.0,60,0.00,,---,0.00,VWS V13.00,2013-07-10 02:17:00,
2013-07-09 20:22:00,67.6,52.8,29.94,ESE,103,11.0,12.0,59,0.00,,---,0.00,VWS V13.00,2013-07-10 02:22:00,
2013-07-09 20:27:00,67.6,53.2,29.94,ESE,107,11.0,13.0,60,0.00,,---,0.00,VWS V13.00,2013-07-10 02:27:00,
2013-07-09 20:32:00,67.3,53.0,29.94,East,99,10.0,14.0,60,0.00,,---,0.00,VWS V13.00,2013-07-10 02:32:00,
2013-07-09 20:37:00,67.0,52.7,29.95,ESE,104,7.0,14.0,60,0.00,,---,0.00,VWS V13.00,2013-07-10 02:37:00,
2013-07-09 20:42:00,66.7,52.4,29.95,ESE,103,7.0,10.0,60,0.00,,---,0.00,VWS V13.00,2013-07-10 02:42:00,
2013-07-09 20:47:00,66.4,53.0,29.95,ESE,110,3.0,10.0,62,0.00,,---,0.00,VWS V13.00,2013-07-10 02:47:00,
2013-07-09 20:52:00,66.1,53.2,29.94,ESE,113,2.0,10.0,63,0.00,,---,0.00,VWS V13.00,2013-07-10 02:52:00,
2013-07-09 20:57:00,65.7,53.2,29.94,ESE,123,4.0,10.0,64,0.00,,---,0.00,VWS V13.00,2013-07-10 02:57:00,
2013-07-09 21:02:00,65.3,52.8,29.94,ESE,120,4.0,10.0,64,0.00,,---,0.00,VWS V13.00,2013-07-10 03:02:00,
2013-07-09 21:07:00,65.0,53.0,29.95,ESE,121,1.0,10.0,65,0.00,,---,0.00,VWS V13.00,2013-07-10 03:07:00,
2013-07-09 21:12:00,64.5,52.9,29.95,ESE,119,2.0,5.0,66,0.00,,---,0.00,VWS V13.00,2013-07-10 03:12:00,
2013-07-09 21:17:00,64.1,52.5,29.95,SE,132,4.0,10.0,66,0.00,,---,0.00,VWS V13.00,2013-07-10 03:17:00,
2013-07-09 21:22:00,64.0,52.0,29.96,SE,127,7.0,12.0,65,0.00,,---,0.00,VWS V13.00,2013-07-10 03:22:00,
2013-07-09 21:27:00,63.8,52.2,29.96,ESE,121,0.0,12.0,66,0.00,,---,0.00,VWS V13.00,2013-07-10 03:27:00,
2013-07-09 21:32:00,63.3,52.2,29.96,ESE,121,0.0,12.0,67,0.00,,---,0.00,VWS V13.00,2013-07-10 03:32:00,
2013-07-09 21:37:00,62.9,52.2,29.97,SE,129,5.0,12.0,68,0.00,,---,0.00,VWS V13.00,2013-07-10 03:37:00,
2013-07-09 21:42:00,62.7,52.0,29.97,ESE,122,1.0,11.0,68,0.00,,---,0.00,VWS V13.00,2013-07-10 03:42:00,
2013-07-09 21:47:00,62.4,52.1,29.97,SE,124,1.0,11.0,69,0.00,,---,0.00,VWS V13.00,2013-07-10 03:47:00,
2013-07-09 21:52:00,62.1,52.2,29.96,SE,126,2.0,11.0,70,0.00,,---,0.00,VWS V13.00,2013-07-10 03:52:00,
2013-07-09 21:57:00,61.7,52.2,29.96,SE,134,0.0,11.0,71,0.00,,---,0.00,VWS V13.00,2013-07-10 03:57:00,
2013-07-09 22:01:00,61.3,52.2,29.96,ESE,123,4.0,11.0,72,0.00,,---,0.00,VWS V13.00,2013-07-10 04:01:00,
2013-07-09 22:06:00,61.1,52.0,29.96,SE,127,4.0,11.0,72,0.00,,---,0.00,VWS V13.00,2013-07-10 04:06:00,
2013-07-09 22:11:00,61.1,52.4,29.97,SE,133,6.0,10.0,73,0.00,,---,0.00,VWS V13.00,2013-07-10 04:11:00,
2013-07-09 22:16:00,61.0,52.3,29.97,SE,129,11.0,11.0,73,0.00,,---,0.00,VWS V13.00,2013-07-10 04:16:00,
2013-07-09 22:21:00,60.8,52.5,29.97,SE,126,3.0,11.0,74,0.00,,---,0.00,VWS V13.00,2013-07-10 04:21:00,
2013-07-09 22:26:00,60.5,52.2,29.97,SE,128,5.0,11.0,74,0.00,,---,0.00,VWS V13.00,2013-07-10 04:26:00,
2013-07-09 22:31:00,60.4,52.1,29.97,SE,132,6.0,12.0,74,0.00,,---,0.00,VWS V13.00,2013-07-10 04:31:00,
2013-07-09 22:36:00,60.4,52.1,29.97,ESE,119,6.0,14.0,74,0.00,,---,0.00,VWS V13.00,2013-07-10 04:36:00,
2013-07-09 22:41:00,60.3,52.3,29.97,SE,134,4.0,7.0,75,0.00,,---,0.00,VWS V13.00,2013-07-10 04:41:00,
2013-07-09 22:46:00,60.0,52.1,29.97,SE,137,7.0,9.0,75,0.00,,---,0.00,VWS V13.00,2013-07-10 04:46:00,
2013-07-09 22:51:00,59.9,52.0,29.97,SE,144,3.0,10.0,75,0.00,,---,0.00,VWS V13.00,2013-07-10 04:51:00,
2013-07-09 22:56:00,59.8,51.9,29.96,SE,146,7.0,10.0,75,0.00,,---,0.00,VWS V13.00,2013-07-10 04:56:00,
2013-07-09 23:01:00,59.5,51.9,29.96,SE,130,9.0,10.0,76,0.00,,---,0.00,VWS V13.00,2013-07-10 05:01:00,
2013-07-09 23:06:00,59.5,51.9,29.96,ESE,122,12.0,12.0,76,0.00,,---,0.00,VWS V13.00,2013-07-10 05:06:00,
2013-07-09 23:11:00,60.0,52.1,29.95,ESE,121,8.0,13.0,75,0.00,,---,0.00,VWS V13.00,2013-07-10 05:11:00,
2013-07-09 23:16:00,60.1,51.8,29.95,SE,128,8.0,13.0,74,0.00,,---,0.00,VWS V13.00,2013-07-10 05:16:00,
2013-07-09 23:21:00,60.2,51.9,29.95,SE,126,10.0,13.0,74,0.00,,---,0.00,VWS V13.00,2013-07-10 05:21:00,
2013-07-09 23:26:00,60.2,51.9,29.95,SE,130,9.0,13.0,74,0.00,,---,0.00,VWS V13.00,2013-07-10 05:26:00,
2013-07-09 23:31:00,60.0,51.7,29.95,SE,129,5.0,13.0,74,0.00,,---,0.00,VWS V13.00,2013-07-10 05:31:00,
2013-07-09 23:36:00,59.7,51.4,29.95,SE,128,7.0,13.0,74,0.00,,---,0.00,VWS V13.00,2013-07-10 05:36:00,
2013-07-09 23:41:00,59.4,51.5,29.95,SE,126,1.0,5.0,75,0.00,,---,0.00,VWS V13.00,2013-07-10 05:41:00,
2013-07-09 23:46:00,59.1,51.2,29.95,SE,125,9.0,11.0,75,0.00,,---,0.00,VWS V13.00,2013-07-10 05:46:00,
2013-07-09 23:51:00,59.2,51.3,29.95,ESE,121,7.0,11.0,75,0.00,,---,0.00,VWS V13.00,2013-07-10 05:51:00,
2013-07-09 23:56:00,59.0,51.1,29.95,ESE,123,6.0,11.0,75,0.00,,---,0.00,VWS V13.00,2013-07-10 05:56:00,